Location: Guferjoch
(46.7462°N, 8.4506°E)
Time: 23:16:34
(UTC+00:00)

H-2A R/B - Pass Details

Date: 14 July 2020
Orbit: 577 x 656 km, 98.5° (Epoch: 14 August)

Event Time Altitude Azimuth Distance (km) Brightness Sun altitude
Rises 02:03:47 0° 141° (SE) 2,926 5.4 -13.5°
Reaches altitude 10° 02:06:08 10° 133° (SE) 2,010 4.6 -13.3°
Maximum altitude 02:10:06 35° 68° (ENE) 1,014 3.7 -12.9°
Drops below altitude 10° 02:14:00 10° 3° (N) 1,980 5.5 -12.5°
Sets 02:16:17 0° 354° (N) 2,875 6.2 -12.2°
